Starlink 30518

operational
NORAD ID: 58029 Int'l Des: 2023-156 Owner: SPXS Country: US Constellation: starlink
LEOCIRCULAR

关于 Starlink 30518

正在加载描述...

实时位置

正在加载3D地球...

即将过境

高度历史

Altitude vs Time

uPlot chart will show altitude changes over time

两行轨道根数

1 58029U 23156B 25352.67466830 -.00000272 00000-0 29410-5 0 9991
2 58029 53.1615 94.5909 0001054 78.3097 281.8022 15.30192325123917
Epoch: Dec 18, 2025 • Age: 11 hours

当前状态

高度 484.3 km
速度 7.62 km/s
星下点 -29.06°S, 64.98°W
发射日期 Oct 9, 2023
运行时间 2.1 years
类型 internet

技术详情

分类 Payload
质量 730.00 kg
干质量 700.00 kg
总质量 730.00 kg
长度 0.30 m
直径 4.10 m
跨度 29.00 m
形状 Box + pan
制造商 SPXS
平台类型 Starlink V2M
阶段状态 In Orbit
所有者/国家 SPXS/US

大型星座

Loading constellations...